Wind_Speed
16 17 18 19 20 20 20 19 19 19 18 16 15 15 15 14 14 14 14 14 15 15 16 17 16 16 16 16 15 13 13 14 13 13 12 12 12 12 13 13 14 15 16 17 19 21 22 24 25 26 27 27 27 27 27 27 27 28 28 28 29 29 29 29 30 30 30 30 29 29 30 30 30 30 30 29 29 29 29 28 28 29 28 28 27
16 16 18 19 20 20 20 19 18 19 19 17 15 15 14 14 13 13 14 15 15 15 16 17 16 16 16 17 16 14 14 14 13 13 13 12 12 13 13 13 14 16 17 18 20 22 24 25 26 27 27 28 27 27 27 27 28 28 28 29 29 30 30 30 30 30 30 30 30 31 31 32 32 32 32 31 31 30 30 30 29 30 30 29 28
17 17 18 20 21 22 22 20 19 19 19 18 17 16 15 14 14 13 14 14 14 15 17 17 16 16 17 17 17 15 14 14 13 12 12 13 13 13 14 14 16 18 18 20 21 24 25 27 27 27 28 27 27 27 27 28 28 28 28 29 29 30 30 30 31 31 31 31 32 32 33 33 33 34 34 34 34 33 32 31 31 31 30 30 30
19 19 20 22 24 26 24 21 19 17 17 19 18 15 15 14 14 14 14 14 15 16 17 18 17 17 17 17 18 16 14 14 13 12 12 13 13 13 14 15 17 19 20 21 22 24 26 27 27 27 27 27 27 27 27 28 28 28 29 29 29 30 31 31 31 32 32 33 33 33 34 34 35 35 35 36 36 36 35 34 33 32 32 31 31
20 20 22 24 26 28 24 20 17 13 12 16 18 15 15 14 14 14 14 14 16 16 17 19 18 18 18 17 17 16 14 13 12 12 11 12 13 13 15 16 17 19 21 23 24 26 27 28 28 28 28 28 28 28 28 28 28 28 29 29 30 30 31 31 32 33 33 34 34 34 35 35 36 36 36 36 37 37 37 37 36 35 34 33 32
19 20 21 23 25 25 20 18 17 15 12 13 15 15 13 13 13 13 14 14 16 17 18 19 19 19 18 17 16 15 14 13 12 12 11 11 12 12 14 16 17 19 22 25 27 28 28 28 29 28 29 28 28 28 27 28 27 28 28 29 30 30 31 32 33 34 34 35 35 36 36 37 37 38 38 38 38 38 39 39 39 38 36 35 34
18 21 22 23 24 22 19 19 17 15 15 14 15 15 13 13 13 13 14 15 16 17 17 19 19 18 18 17 16 14 13 13 12 13 12 11 12 12 13 14 16 19 23 26 28 29 29 29 29 28 28 27 27 26 26 27 27 28 29 29 30 31 32 33 34 35 35 36 36 37 37 38 38 39 39 39 40 40 40 41 41 40 39 37 35
20 22 22 24 25 22 21 22 18 16 17 15 15 16 14 14 14 14 15 15 16 16 17 18 18 18 17 17 16 15 13 12 12 13 13 12 12 12 13 15 17 20 23 25 27 28 28 29 28 28 27 26 25 25 26 27 28 29 30 30 31 32 33 33 34 35 35 36 36 37 38 38 39 40 40 41 41 41 42 42 43 43 42 40 38
21 22 22 24 24 22 20 21 21 20 18 15 13 14 15 15 14 15 16 16 16 16 17 18 17 17 16 15 16 15 14 13 12 12 12 13 13 14 15 17 19 22 24 25 25 26 26 26 26 26 25 26 26 26 27 28 29 30 31 32 33 34 35 35 35 36 36 37 37 38 38 39 39 40 40 41 41 42 42 43 44 44 44 43 42
20 21 22 23 22 21 20 20 21 20 19 18 16 14 14 15 14 15 17 17 17 16 17 18 16 16 16 15 14 14 14 13 13 13 13 13 14 16 17 19 21 23 24 25 25 24 24 23 23 23 23 25 26 27 28 30 31 32 33 35 36 36 37 38 38 39 39 40 40 40 40 40 41 41 41 42 42 43 44 44 45 45 45 45 45
20 21 22 22 21 20 20 20 20 21 21 20 18 15 15 14 14 16 17 18 17 17 17 17 16 15 16 15 14 14 13 13 13 13 13 13 14 16 18 21 23 24 24 24 24 23 22 21 21 22 23 24 26 28 30 32 33 34 36 36 37 38 39 40 40 40 41 41 41 41 42 43 43 44 44 44 45 45 45 46 47 47 47 47 46
20 21 22 21 19 19 19 19 18 20 20 18 15 14 13 13 14 16 18 18 18 18 18 17 16 15 15 15 14 13 13 12 12 12 12 14 15 17 20 22 23 23 24 24 23 22 21 21 22 22 23 25 27 29 31 33 34 35 37 38 39 40 40 41 41 41 41 41 42 43 43 44 45 45 46 47 47 47 48 48 49 49 49 49 48
20 21 22 20 18 18 19 18 17 17 18 18 16 14 14 14 15 16 18 19 18 18 18 16 16 16 15 15 14 13 12 12 12 12 13 14 16 19 21 22 23 23 24 23 22 21 21 21 22 23 25 27 29 31 32 33 35 36 38 39 40 40 40 40 41 41 42 43 44 44 45 45 46 46 47 47 48 49 49 50 51 51 51 51 51
20 20 20 18 18 19 20 19 18 17 17 17 17 17 16 16 15 16 18 19 19 18 18 17 16 16 16 15 14 12 11 11 12 12 14 16 19 21 22 22 22 22 22 21 20 20 21 22 23 25 27 29 31 32 33 35 36 37 38 39 39 39 39 40 41 42 43 44 45 45 46 47 48 48 48 48 48 49 49 50 51 52 53 54 53
21 20 19 17 18 20 21 20 19 18 17 16 16 16 16 16 15 17 18 18 19 18 18 18 17 16 15 14 14 12 10 11 12 13 16 18 20 22 22 22 22 21 20 19 20 20 21 22 25 27 29 30 31 33 35 36 37 37 37 37 37 37 38 39 40 41 43 44 45 47 48 49 49 50 50 50 50 49 49 49 49 50 52 54 55
22 21 19 18 18 19 21 20 18 19 18 16 15 16 16 16 16 17 18 18 19 18 18 18 18 16 15 13 13 13 11 11 13 15 18 20 21 21 21 21 21 20 19 19 20 21 22 24 26 27 28 30 32 34 35 35 35 35 35 35 36 38 39 40 41 43 44 46 47 49 50 50 49 48 48 48 48 49 49 49 48 47 48 50 53
23 21 20 20 20 20 20 19 18 19 18 17 17 18 18 17 17 18 18 18 19 19 18 18 18 16 14 12 12 13 13 14 15 17 19 20 20 20 20 20 19 19 19 20 21 21 23 24 26 27 29 31 33 34 34 34 33 33 34 35 37 39 41 42 43 44 46 47 49 51 52 51 50 47 46 45 45 46 46 47 47 47 46 47 48
23 22 22 21 20 20 19 18 18 19 19 19 20 19 17 17 18 19 19 19 20 20 19 18 17 15 13 12 12 13 14 16 18 19 19 19 20 20 19 19 19 19 20 20 21 22 23 25 26 29 31 32 33 33 32 32 32 32 33 36 38 40 41 43 44 45 46 49 51 52 53 52 50 48 46 45 44 43 42 42 42 43 45 46 46
23 23 22 22 20 19 17 17 18 19 20 21 20 18 18 18 17 18 19 20 20 19 19 19 18 16 13 12 13 14 15 17 18 19 20 19 18 18 18 18 18 19 20 21 21 22 24 26 29 31 31 31 31 31 31 31 31 31 33 35 38 40 42 44 46 47 50 51 52 54 54 53 51 49 47 46 43 39 37 37 38 38 39 41 43
23 23 22 21 20 19 18 17 18 18 20 20 19 18 18 17 18 18 19 19 19 19 19 20 19 17 13 12 14 15 15 16 17 18 19 18 18 18 18 17 17 18 20 21 22 24 26 28 29 29 28 29 29 30 30 30 30 31 33 35 38 41 43 46 49 51 52 53 54 55 54 52 51 50 48 45 40 38 37 37 37 38 38 37 38
23 23 22 21 20 20 19 18 18 19 20 20 19 18 18 18 18 17 17 17 18 19 20 21 19 16 14 13 14 14 14 15 16 17 17 17 17 18 18 18 18 19 20 21 23 25 26 27 26 26 27 28 28 29 29 29 30 32 34 36 38 41 44 47 50 52 53 54 55 55 53 51 49 50 49 44 40 38 38 39 39 38 38 38 37
23 22 21 21 21 21 20 19 19 21 22 22 20 19 17 16 16 15 15 16 18 20 22 21 18 15 14 14 14 14 14 15 15 15 16 17 17 17 18 19 20 21 21 22 23 25 25 25 25 26 27 28 28 30 30 30 31 33 35 38 40 42 45 47 49 51 54 55 56 56 54 51 48 48 48 45 42 40 39 38 38 38 38 38 38
20 21 22 22 21 21 21 20 19 22 23 21 19 17 15 14 14 14 15 17 19 21 21 19 15 14 13 13 13 14 15 16 16 16 16 17 17 17 17 19 20 21 22 22 23 24 24 24 25 26 27 28 29 31 31 31 32 34 37 39 41 43 45 47 49 51 53 55 57 57 56 53 49 47 45 43 42 42 41 38 37 38 39 39 38
19 20 21 21 21 20 20 20 19 20 21 19 17 16 15 16 15 14 16 19 21 20 17 14 12 12 13 13 14 15 16 16 17 17 17 18 18 18 18 19 20 20 22 23 23 23 24 25 26 27 28 29 30 32 32 32 33 35 37 40 42 44 46 48 50 51 52 54 57 58 58 56 52 49 46 43 40 40 42 41 39 39 39 39 38
19 20 20 21 20 19 18 18 18 18 18 17 15 15 17 17 15 14 18 20 19 16 12 11 12 12 13 14 15 15 16 17 17 18 18 19 20 19 19 20 20 21 22 23 23 24 25 26 27 27 28 30 31 32 33 33 34 35 38 40 42 44 46 48 50 51 52 54 56 57 58 58 55 52 49 47 42 39 40 41 41 39 38 38 36
18 19 20 21 21 20 18 18 18 17 16 15 15 16 17 16 15 16 18 16 14 12 12 12 12 12 13 14 15 15 16 17 18 18 19 20 20 21 21 21 21 22 23 24 25 25 25 26 27 27 29 30 32 33 33 33 34 35 37 40 42 44 46 48 49 50 51 53 54 56 57 57 56 54 52 50 47 44 41 41 41 39 37 36 35
18 19 20 21 22 20 19 20 19 17 15 14 16 17 16 16 16 16 15 13 12 13 13 13 12 13 13 14 15 16 17 17 18 18 19 20 21 21 22 22 23 24 25 25 26 26 26 26 26 27 29 30 31 33 33 34 34 35 38 40 42 44 46 47 48 49 50 51 53 54 55 56 56 55 54 53 52 49 45 42 40 38 36 34 33
18 19 19 20 20 20 20 20 18 17 15 15 18 18 16 16 16 15 13 12 13 14 13 12 12 13 14 15 15 16 17 17 18 19 20 20 21 22 23 23 24 25 25 26 26 26 26 26 27 28 29 30 31 32 33 34 35 36 38 40 42 44 46 46 47 48 49 50 51 52 53 55 55 55 55 54 53 52 49 44 39 36 35 34 33
18 17 17 16 17 19 19 17 16 16 14 15 17 17 16 16 16 14 13 13 13 12 12 12 12 13 14 15 16 16 17 17 18 19 20 20 21 22 23 23 25 25 25 25 26 26 26 26 27 28 29 30 31 32 33 34 35 36 38 39 41 43 44 45 45 47 48 49 49 50 51 53 53 54 54 54 53 53 51 48 44 38 35 34 33
16 16 15 14 15 16 15 15 14 13 13 14 15 15 16 17 15 13 13 12 11 11 11 12 13 14 15 15 16 16 17 17 18 19 20 20 21 23 23 24 25 25 25 26 26 26 26 26 27 28 29 29 30 32 33 34 35 37 37 39 41 42 43 43 44 45 47 47 48 48 49 51 52 53 54 54 54 53 52 50 48 45 39 35 33
15 14 14 14 14 13 13 12 11 11 11 12 13 15 16 15 12 12 12 11 10 11 12 13 14 15 15 16 16 16 17 18 18 19 20 21 22 23 24 24 25 25 25 26 26 26 26 26 27 28 28 29 30 32 33 34 36 36 37 39 40 41 41 42 43 44 45 46 46 47 48 49 51 52 54 54 54 53 53 51 50 48 45 40 35
12 11 12 11 11 10 8 7 7 9 11 12 13 14 12 10 10 11 10 10 10 11 13 14 14 15 16 16 17 17 18 18 19 20 21 22 22 23 24 24 25 25 25 26 26 26 25 26 27 27 27 28 30 31 33 34 35 36 37 38 39 40 40 41 43 43 44 44 45 46 46 47 49 51 53 54 54 54 53 52 51 50 47 44 40
8 7 6 6 6 6 5 5 7 10 12 11 10 9 9 9 10 9 9 9 11 12 13 13 14 16 17 17 17 17 18 19 21 22 22 23 23 23 24 24 24 25 25 26 26 25 25 26 27 27 27 28 29 31 33 34 35 36 36 37 38 39 40 41 42 42 42 43 44 44 45 46 48 50 52 53 54 55 54 52 51 51 49 46 43
7 6 5 4 4 4 4 5 7 9 9 7 7 8 9 9 9 8 9 10 11 12 12 14 15 16 17 18 18 18 19 21 22 23 23 24 24 24 24 24 25 25 25 26 25 25 26 26 26 27 27 28 29 31 32 33 34 35 36 36 37 38 39 40 41 41 42 42 43 44 45 46 47 48 51 53 54 55 55 53 50 50 50 49 46
6 5 5 4 3 3 3 4 5 6 7 8 8 8 8 8 8 8 9 10 10 11 13 14 15 16 17 18 19 20 21 22 23 23 24 24 24 25 25 25 25 25 26 26 26 25 25 26 26 27 27 29 30 31 32 33 34 34 35 36 37 38 39 40 40 40 41 41 41 43 44 45 46 48 49 52 53 54 55 54 52 49 49 49 48
5 4 4 3 3 3 4 5 6 7 7 7 7 7 7 7 7 8 9 10 11 12 13 15 16 17 18 19 20 22 23 24 24 24 24 25 25 26 26 26 25 25 26 26 26 25 25 26 26 27 27 29 30 30 32 33 33 34 35 36 37 38 39 40 40 40 40 39 40 42 44 45 46 47 48 50 52 54 55 55 54 51 49 48 48
3 3 3 3 3 3 4 5 6 6 6 6 6 5 6 7 8 9 10 11 12 13 15 16 17 18 20 21 22 23 24 25 25 25 25 25 26 26 27 26 25 26 26 26 26 25 25 26 27 27 27 28 29 30 31 33 34 34 35 35 36 38 39 40 40 40 39 39 40 41 43 44 45 46 48 49 51 53 55 55 55 53 50 48 48
4 4 4 5 5 4 4 5 5 5 5 6 5 5 6 8 9 10 11 13 14 15 17 18 19 21 22 23 24 25 26 26 26 26 27 26 26 27 27 26 26 26 27 26 26 25 25 26 27 27 28 29 29 30 31 32 33 34 35 36 37 37 39 39 40 39 39 39 39 41 42 44 45 46 47 48 50 52 54 55 55 54 52 49 49
6 6 5 6 6 5 5 4 4 5 6 6 6 7 8 10 11 12 13 14 16 17 19 20 21 22 23 24 25 26 26 27 28 28 28 27 26 27 26 25 26 27 27 26 26 26 26 26 27 28 29 29 30 30 31 32 33 34 35 36 36 37 38 39 39 39 39 39 40 41 42 43 45 46 47 48 49 50 52 54 55 54 52 51 50
7 6 6 6 7 6 5 5 5 6 7 8 8 9 11 12 13 14 15 16 17 19 20 21 22 23 23 25 27 26 27 28 30 32 31 28 26 26 25 25 26 27 27 27 26 26 26 27 27 28 29 30 30 30 32 33 34 34 35 35 35 36 37 38 38 38 39 39 39 40 42 43 45 46 47 48 49 50 51 53 55 54 52 51 51
8 7 6 7 7 7 6 6 7 8 9 10 11 12 13 14 14 15 16 18 19 20 21 23 23 23 25 27 28 28 28 30 33 35 34 29 26 25 24 24 26 27 27 27 26 26 26 27 28 29 30 30 30 30 32 33 33 34 34 34 34 35 36 36 37 38 39 39 40 40 42 43 45 46 47 48 49 50 51 52 54 55 52 51 51
8 8 8 8 8 8 8 8 9 10 11 12 13 14 15 16 16 18 18 19 20 21 23 24 24 25 26 28 29 30 31 31 33 36 35 30 25 24 24 24 26 27 27 27 27 27 27 27 28 29 30 30 30 30 32 33 33 33 33 34 34 34 35 35 36 37 38 39 40 41 42 43 45 45 47 48 49 50 51 52 53 54 52 50 50
10 9 9 9 10 10 11 11 12 13 14 15 16 17 18 18 19 20 20 21 21 23 25 25 26 27 28 29 30 31 32 32 33 36 35 30 25 23 23 25 26 27 27 27 27 27 27 28 29 30 30 30 30 31 32 33 34 34 34 33 33 33 34 35 35 36 38 39 40 42 43 44 45 45 46 48 49 49 50 51 53 54 52 49 49
11 11 11 11 11 12 13 14 15 16 17 18 19 20 20 21 22 22 22 22 23 25 26 27 27 28 29 30 31 31 31 31 33 36 34 29 25 23 23 25 26 27 27 27 27 27 27 28 29 30 30 30 30 30 32 33 34 34 34 34 34 34 34 35 35 36 38 39 41 43 44 45 45 46 46 47 48 49 50 51 52 53 52 49 47
13 14 13 13 13 14 15 16 17 18 20 21 22 22 23 24 24 25 25 24 25 26 27 28 29 29 30 31 32 33 31 29 31 34 33 28 24 23 24 25 26 27 27 27 27 28 28 29 29 29 30 31 31 31 32 32 33 34 35 35 34 35 35 35 36 37 38 40 42 43 44 45 45 46 46 46 47 48 49 50 50 52 52 49 46
16 16 16 16 16 16 17 18 19 21 23 24 24 25 26 26 26 27 27 26 27 27 28 29 30 31 32 32 32 33 30 28 30 33 31 26 24 24 24 26 27 27 28 28 28 28 29 29 29 30 31 31 32 32 33 33 34 34 35 35 35 35 36 36 36 37 39 40 42 43 44 45 46 46 45 46 46 47 49 49 50 51 52 50 46
18 18 18 18 19 19 20 21 22 24 26 26 26 27 28 28 28 28 28 28 28 29 29 30 31 32 33 32 32 32 30 28 30 32 29 26 25 24 25 27 27 27 28 28 29 29 30 30 30 30 31 32 32 33 34 34 34 35 35 35 36 36 37 38 38 39 40 41 42 43 44 45 46 46 45 45 46 47 48 49 49 50 51 50 46
20 20 20 20 21 21 22 23 25 27 29 28 29 30 30 30 29 29 30 30 31 31 31 32 32 33 33 32 32 32 28 27 29 31 29 27 26 26 27 28 28 28 28 29 30 30 30 30 30 31 31 32 33 34 34 35 35 36 36 37 37 38 38 39 39 40 41 41 42 43 44 45 46 46 45 45 45 46 47 48 48 49 50 50 47
20 20 20 21 22 23 23 25 27 30 32 32 32 32 32 32 31 30 30 30 31 31 32 32 32 33 33 32 32 31 28 26 29 31 29 27 26 27 28 29 29 29 29 30 30 31 31 31 31 32 32 33 34 35 35 36 36 37 37 38 38 39 39 40 40 40 41 42 43 44 45 45 45 45 45 44 45 45 46 46 47 47 48 49 47
21 21 22 23 24 25 26 28 30 33 35 35 34 33 34 35 32 28 26 27 28 28 29 30 32 33 33 32 32 32 29 28 30 31 30 28 28 28 29 30 30 30 30 31 31 32 32 32 32 33 33 34 36 36 37 37 37 37 38 39 39 40 41 41 41 42 42 43 44 45 45 45 45 45 44 44 44 45 45 45 46 46 46 47 46
22 22 24 25 26 27 28 29 31 32 33 35 36 33 33 34 30 25 24 26 26 26 27 29 31 32 32 32 33 33 31 30 31 31 30 29 29 29 30 31 31 31 31 32 33 33 33 33 33 34 34 35 37 37 38 38 39 39 39 40 41 41 42 43 43 43 43 44 45 45 45 46 46 45 44 43 43 44 44 45 45 44 44 44 44
Wind_Direction
300 303 308 311 312 311 307 301 294 284 278 277 280 285 289 293 297 303 304 305 311 317 315 312 318 330 333 327 322 318 311 308 309 308 310 312 313 315 316 318 320 322 324 326 327 328 329 328 328 329 328 328 328 327 326 325 325 326 326 326 325 325 325 325 325 324 323 322 321 319 317 316 314 313 312 310 308 306 303 301 299 297 296 296 295
295 299 304 308 309 305 300 297 290 282 279 277 276 279 284 291 297 303 301 304 310 312 312 312 319 327 327 326 324 318 308 305 306 305 306 306 307 308 309 313 315 317 321 325 328 328 328 328 329 329 328 327 327 327 327 326 326 326 326 326 325 325 325 325 325 323 322 321 319 318 316 315 313 312 311 310 308 306 303 300 297 295 293 292 291
294 297 302 306 307 302 295 292 287 280 277 273 272 275 280 288 294 298 302 307 310 310 312 314 318 322 323 324 321 317 308 302 302 301 301 301 302 304 306 311 313 316 321 325 328 327 327 328 328 328 327 327 327 327 327 326 327 327 327 327 326 326 325 325 324 323 321 319 318 317 315 314 312 311 310 308 307 305 303 300 297 294 292 290 288
296 301 308 311 313 306 291 282 279 271 267 265 266 272 277 284 290 295 300 304 306 310 313 313 315 319 323 324 320 315 307 302 301 297 295 296 297 301 304 309 313 317 322 325 326 326 326 327 328 327 327 328 328 328 328 328 329 329 328 328 327 326 325 324 323 322 320 319 317 315 313 312 310 310 308 307 306 304 302 299 297 294 292 289 287
301 308 313 312 313 311 292 280 282 271 264 264 263 269 275 282 289 293 296 299 303 309 312 311 314 318 322 324 319 313 307 302 298 293 292 294 298 304 308 312 317 320 322 324 324 325 326 327 328 329 329 330 330 331 330 330 331 330 329 329 328 327 325 324 323 321 319 318 316 314 312 310 308 307 305 304 303 302 300 298 296 293 291 288 286
305 304 305 301 304 310 293 280 288 285 282 278 270 272 278 284 289 293 294 294 299 307 311 311 315 319 322 323 319 312 306 300 293 288 283 284 292 302 310 317 320 322 323 324 325 327 328 329 330 330 331 331 331 331 331 331 331 332 331 330 329 328 327 325 323 321 320 318 315 313 311 309 307 304 303 301 300 299 298 296 295 293 290 288 285
296 292 296 297 301 308 291 279 286 281 279 285 283 283 285 287 291 293 293 294 299 306 310 311 314 318 321 321 316 309 301 295 290 288 285 282 288 296 304 310 314 318 321 324 327 329 330 331 330 330 330 330 330 331 332 333 333 333 332 331 330 329 328 326 324 322 320 318 315 313 311 309 306 304 301 299 298 296 295 294 293 292 290 287 284
293 296 301 302 304 306 294 287 291 280 270 273 279 283 288 290 292 294 293 297 302 306 308 309 312 317 319 316 311 305 298 291 288 288 291 293 295 299 303 307 312 317 321 324 327 328 329 328 328 328 328 330 332 333 335 334 334 334 333 332 330 329 327 325 323 321 319 317 315 312 310 308 305 303 301 298 297 295 293 292 291 290 289 287 284
299 302 301 299 299 301 296 291 292 286 274 273 278 279 284 288 291 294 295 298 302 305 306 305 311 315 313 308 303 300 295 292 290 290 294 299 301 305 308 313 317 321 324 326 327 327 326 326 326 327 329 333 335 335 336 336 335 334 333 332 330 329 327 326 324 322 320 318 316 313 310 307 304 301 299 298 296 294 292 291 289 288 286 285 283
299 301 299 297 299 300 298 293 290 286 278 280 288 284 281 284 287 292 295 297 300 303 302 303 310 310 306 304 297 293 291 291 293 294 297 301 306 310 315 319 322 325 327 327 326 325 324 324 326 330 332 334 335 335 336 336 335 334 333 332 331 330 329 328 327 325 322 320 317 313 310 307 305 302 300 298 296 294 292 290 288 286 284 283 282
299 300 299 299 302 301 298 293 286 283 278 280 289 284 276 279 284 289 292 294 297 299 299 302 306 303 302 302 294 289 289 291 293 296 300 305 308 312 316 321 324 326 326 324 324 324 325 327 330 332 333 334 334 335 335 335 334 333 333 332 332 331 330 328 325 323 320 317 315 312 310 308 306 303 301 298 295 293 291 289 287 285 283 282 280
300 299 299 300 302 300 298 297 288 282 277 277 285 280 271 278 284 287 289 292 295 296 297 300 301 300 299 298 292 289 289 290 293 296 301 304 307 312 317 322 325 324 323 323 323 325 327 330 331 332 333 334 334 334 334 334 333 333 333 332 331 329 327 325 322 320 319 317 315 313 311 308 306 303 300 297 294 291 289 286 284 283 281 280 279
300 299 300 300 301 300 301 301 294 285 278 276 277 273 273 282 284 285 288 291 293 294 296 298 298 298 296 294 291 289 288 288 291 294 298 301 307 313 318 322 322 321 321 322 323 326 328 329 330 331 332 333 333 334 334 334 334 334 333 331 329 326 325 323 322 321 320 318 317 314 312 309 307 304 301 297 293 290 287 283 281 279 278 277 276
299 297 297 298 300 302 302 298 292 286 280 276 274 273 279 284 282 284 288 291 293 294 296 296 295 295 295 294 290 287 287 287 288 292 297 304 309 314 318 319 318 318 319 321 323 326 327 328 330 331 333 333 334 335 336 336 336 334 332 329 327 327 326 325 324 323 321 320 318 317 316 314 312 309 305 301 297 292 288 283 279 276 274 272 271
296 295 295 298 300 301 300 295 290 284 277 273 276 282 286 285 282 285 288 291 293 293 294 294 292 292 290 289 286 283 281 281 287 294 300 307 311 315 317 315 315 317 318 321 324 326 326 328 330 333 334 335 336 337 337 337 334 332 330 329 329 329 328 327 325 323 322 322 322 322 322 320 318 315 311 307 302 298 293 288 283 278 274 271 269
294 292 292 295 297 297 296 294 288 280 273 270 276 287 292 288 283 284 288 290 291 290 290 291 291 289 286 284 285 288 288 285 289 297 302 307 311 312 312 311 314 317 320 323 325 325 325 328 332 334 335 336 337 337 336 334 332 331 332 333 334 333 332 330 328 328 328 328 328 328 327 325 322 318 313 309 305 301 298 294 290 284 279 274 270
293 290 289 292 294 294 295 294 286 277 273 271 277 287 292 288 282 280 284 287 287 288 288 289 288 285 284 282 284 290 292 292 294 298 301 305 307 308 309 312 316 319 322 324 324 323 325 330 333 334 335 336 337 336 334 332 333 335 338 340 340 339 338 336 335 334 333 333 332 332 330 328 325 320 315 311 308 305 301 298 294 290 285 280 275
291 289 289 292 295 295 293 290 281 274 273 274 278 284 288 288 283 279 282 286 286 287 287 285 282 277 272 269 272 277 281 287 294 297 300 302 304 307 311 316 318 320 322 323 322 323 328 331 332 333 335 336 336 335 333 333 335 339 341 343 344 344 344 343 341 339 338 338 337 336 334 331 328 324 320 317 314 311 307 303 298 294 289 284 279
290 288 287 291 294 293 288 283 279 276 273 273 275 280 284 285 282 280 283 285 285 286 285 282 279 273 265 259 261 266 272 281 291 295 298 301 305 309 313 316 318 320 321 321 322 326 330 332 333 335 337 337 335 332 331 333 335 338 341 344 346 348 349 348 347 346 345 343 342 340 337 334 331 328 326 324 321 318 314 311 308 304 299 294 287
286 285 284 289 292 287 281 279 281 280 275 272 272 276 280 278 279 282 284 285 285 285 282 281 279 274 267 261 261 266 273 282 288 292 296 302 308 311 312 313 316 318 320 321 326 330 332 333 336 337 336 333 330 328 329 330 333 338 341 343 346 349 351 352 352 352 350 347 345 343 340 336 334 332 331 328 325 323 320 316 313 310 308 304 300
283 283 284 289 289 284 278 276 280 285 281 275 272 275 275 275 280 283 283 284 285 284 281 280 278 274 269 267 267 272 279 283 287 291 298 305 310 313 314 315 318 321 323 326 330 333 333 335 336 334 330 327 325 325 326 328 334 339 341 343 346 349 350 353 354 353 352 350 348 346 342 339 336 336 335 331 327 324 323 321 317 315 311 308 305
283 280 282 287 289 284 278 276 279 283 281 276 274 275 272 274 280 280 279 282 282 281 279 278 276 272 270 271 274 279 283 285 290 297 303 307 311 315 316 318 322 324 328 332 332 332 332 331 330 328 325 323 322 324 326 330 335 339 342 345 348 349 350 352 352 352 353 352 351 349 346 342 340 339 338 334 330 327 326 324 321 320 318 314 309
284 278 280 286 289 284 278 278 277 276 276 274 270 269 266 268 273 275 279 282 280 278 276 275 273 269 268 273 278 283 287 292 298 304 308 311 314 316 317 320 323 325 330 333 331 329 328 326 326 324 322 321 322 325 327 330 334 338 342 346 348 349 350 350 349 351 352 352 352 352 350 346 343 343 341 337 333 330 328 327 323 320 319 318 315
284 279 280 285 286 283 278 277 275 273 273 271 265 261 263 268 269 273 280 279 275 274 273 269 264 262 267 273 279 285 292 299 304 307 312 316 317 319 320 321 323 325 329 330 328 326 324 323 323 322 321 321 323 325 327 330 332 337 342 345 347 349 349 348 348 350 351 352 353 353 352 350 346 345 345 343 338 333 329 327 324 321 319 317 316
285 282 283 283 284 284 280 275 274 274 271 268 266 262 264 268 268 272 278 275 271 268 262 252 251 258 267 273 280 288 296 302 307 311 316 318 319 320 321 322 324 326 327 327 326 324 323 322 322 321 321 322 323 324 327 329 332 337 341 344 346 347 347 347 348 349 350 352 353 354 354 353 350 347 347 347 343 339 334 330 326 322 320 319 317
289 286 284 282 279 280 278 272 274 277 271 266 264 260 259 260 261 266 271 270 264 254 243 241 250 261 269 276 285 293 299 305 310 315 318 319 319 321 321 323 325 325 324 325 325 324 322 321 320 321 321 321 322 324 327 330 333 337 341 343 344 345 345 346 347 348 350 352 353 354 355 355 353 349 348 348 347 345 342 337 333 329 325 324 322
296 289 283 280 277 276 274 270 269 270 266 262 258 254 252 253 258 264 264 258 249 239 236 243 255 265 273 281 289 296 302 308 313 316 318 320 321 321 322 324 325 324 324 324 324 322 320 319 319 320 320 320 321 324 327 332 335 338 341 342 343 343 344 345 346 348 350 352 353 354 355 356 354 352 349 349 350 348 346 342 338 333 330 329 328
297 292 286 282 277 272 271 268 263 260 260 258 252 248 250 254 257 259 255 246 238 235 240 251 261 270 278 285 291 298 305 310 314 316 319 321 322 323 324 324 324 324 323 322 321 319 318 318 319 319 319 320 321 324 329 333 337 339 341 341 341 342 343 344 346 348 349 351 352 354 356 356 355 353 351 350 350 350 348 346 342 336 331 329 328
296 294 290 285 277 270 268 267 263 256 253 250 246 247 252 255 254 251 246 241 237 239 249 259 268 275 281 287 293 301 307 311 314 317 320 322 323 324 324 323 323 322 321 319 318 317 317 318 318 318 318 319 321 325 330 335 338 340 340 340 341 341 342 344 346 347 348 349 351 354 355 356 356 355 353 352 351 351 350 348 346 342 335 329 326
296 292 288 284 279 272 267 267 262 251 241 240 243 248 253 252 250 246 241 238 240 247 258 266 272 278 283 290 297 303 308 312 316 318 320 322 323 323 322 322 321 320 318 318 317 316 316 317 317 317 317 319 322 326 332 336 339 339 339 339 339 340 341 343 345 346 347 348 350 352 354 355 355 355 355 354 352 352 352 350 348 346 342 335 329
297 290 284 282 279 273 267 262 254 243 239 239 244 255 258 252 243 237 233 235 244 255 263 269 275 280 287 294 300 305 309 314 317 319 320 321 321 321 321 321 320 319 317 316 315 315 315 315 315 315 316 319 322 327 332 336 338 339 338 338 338 339 341 343 345 345 346 346 348 350 352 353 354 354 354 355 354 353 352 352 350 348 345 340 335
306 295 284 280 275 266 257 247 237 239 246 248 251 258 254 237 227 227 232 242 254 261 267 272 279 288 295 299 303 307 312 317 319 319 319 319 320 320 320 320 320 318 316 314 313 313 313 313 313 313 316 318 322 327 332 335 337 337 337 337 337 338 341 343 344 344 344 345 346 348 350 351 351 352 352 353 354 354 353 353 351 349 347 344 339
318 312 295 284 269 253 250 255 254 253 254 253 248 235 217 213 221 228 239 252 260 265 272 281 291 297 301 302 304 308 314 319 319 318 317 318 318 319 319 319 318 315 313 312 311 311 312 312 312 312 315 317 320 326 331 333 334 335 335 335 336 338 340 342 342 343 343 344 344 345 347 348 349 350 350 352 353 354 354 353 352 349 348 346 344
302 301 293 292 281 259 251 253 253 247 237 226 210 199 202 214 224 233 246 256 264 274 285 295 300 302 302 303 305 310 315 317 316 315 315 316 316 316 317 316 314 312 311 310 309 309 311 311 310 311 314 316 319 324 328 330 331 332 333 333 335 337 339 341 341 341 342 342 342 343 344 345 346 347 348 350 351 352 353 353 352 350 348 347 346
291 287 283 285 275 246 210 202 205 201 193 190 191 197 207 219 230 245 256 265 277 289 297 301 303 304 305 306 306 309 312 313 312 312 313 314 314 314 315 314 312 310 309 307 307 308 310 310 310 311 313 315 318 322 325 327 329 330 330 331 333 336 338 339 339 339 340 341 341 342 342 342 343 345 346 348 349 351 352 352 351 350 348 347 346
294 289 285 271 245 214 184 178 179 179 181 186 194 202 215 231 247 258 265 276 287 294 299 302 305 308 308 307 306 307 308 309 310 310 311 311 310 312 314 313 309 307 306 305 306 307 309 309 309 310 312 314 317 320 323 325 326 327 328 330 332 335 337 338 338 338 338 339 341 341 341 341 341 342 344 346 347 349 351 351 350 349 349 347 346
294 296 289 273 254 222 193 183 179 179 185 194 205 218 235 249 258 265 271 280 286 292 297 301 305 307 306 305 305 306 306 307 307 308 309 308 308 310 312 310 306 305 305 305 306 307 308 308 309 310 312 313 316 319 322 324 325 326 327 328 331 334 336 336 336 336 336 337 340 340 340 340 340 340 342 343 345 347 349 350 349 348 348 348 346
285 286 283 279 271 247 219 202 192 195 206 217 226 239 250 258 263 270 275 281 286 291 295 300 302 302 303 304 304 304 304 305 305 307 308 308 306 307 308 306 304 304 305 305 306 306 306 307 309 311 312 313 315 318 321 323 323 324 325 328 331 333 334 334 334 334 333 335 337 338 338 339 339 340 341 342 343 346 348 349 349 347 347 348 347
282 281 282 280 273 256 238 222 214 223 233 240 247 254 260 266 271 276 281 284 288 291 294 297 298 300 303 304 303 302 302 302 303 306 309 307 304 304 305 303 303 304 304 304 304 304 305 307 310 312 313 314 316 319 321 321 321 322 325 328 330 331 332 332 332 331 332 334 335 336 337 338 340 341 342 342 342 345 347 348 348 347 347 348 348
283 286 286 280 275 268 258 246 242 248 254 257 262 265 269 273 277 281 284 285 287 291 294 295 297 301 305 303 301 301 300 301 303 305 308 306 302 301 301 300 301 303 303 302 302 302 304 307 310 312 313 314 316 319 321 321 321 322 324 325 326 328 329 330 330 330 331 332 333 334 335 337 339 341 342 342 343 345 346 347 348 347 347 348 349
284 290 288 282 281 280 275 269 265 266 269 270 273 275 276 280 282 283 284 286 290 293 294 295 299 303 303 301 301 301 300 302 304 305 305 303 300 298 297 298 300 301 301 301 300 302 304 307 311 313 313 314 317 319 320 319 319 320 321 322 324 325 326 327 329 330 331 331 331 332 333 335 337 339 341 342 343 344 345 346 348 348 347 348 349
279 284 286 285 286 289 288 285 283 281 282 281 282 283 284 285 285 285 287 290 293 294 294 297 301 301 300 301 303 302 302 304 305 304 303 301 297 295 294 296 298 299 300 300 299 301 303 308 311 312 313 315 317 318 318 317 318 318 319 320 321 323 325 327 329 330 331 331 331 332 333 334 335 336 339 342 343 344 344 346 348 349 348 348 349
274 276 278 281 285 290 290 289 289 288 287 285 285 286 286 286 286 287 290 292 294 294 295 298 300 299 300 302 302 302 304 304 303 303 302 299 294 292 292 294 297 298 298 298 298 300 304 308 310 311 313 315 316 317 317 317 317 317 317 317 319 322 324 326 328 329 330 331 332 334 335 335 335 335 337 340 342 343 343 345 348 349 348 348 349
270 271 273 276 281 285 286 287 288 288 287 286 286 286 286 287 288 290 293 294 295 295 295 297 299 299 299 300 300 300 301 301 301 300 299 296 292 290 291 294 296 297 296 296 298 301 305 307 308 310 312 314 315 316 316 315 315 315 315 317 320 321 323 324 326 328 330 332 334 335 336 335 335 335 336 339 341 342 343 345 347 349 349 349 350
268 270 271 274 277 281 284 286 287 287 286 285 286 287 288 289 291 293 295 296 295 294 295 297 296 295 296 297 298 298 297 299 298 295 294 294 291 289 291 293 295 295 295 296 299 301 303 303 305 309 312 314 315 315 314 313 313 313 316 318 320 320 321 323 326 328 330 333 336 336 336 335 335 335 335 337 339 342 344 345 347 349 350 349 350
268 271 273 275 277 280 283 285 286 286 284 285 287 288 289 290 291 293 295 294 294 293 293 293 292 292 294 296 298 300 300 298 294 291 291 292 289 288 291 293 294 294 295 296 298 299 300 302 306 309 312 314 314 312 311 311 312 315 317 318 318 319 321 323 325 327 330 334 336 336 335 334 334 334 335 335 337 341 344 345 346 348 350 350 350
269 271 274 276 279 281 283 285 286 286 285 286 288 288 288 289 290 292 292 291 291 291 290 290 289 291 295 297 299 302 302 296 292 291 291 290 287 288 290 291 292 293 293 295 297 299 301 304 307 309 310 311 310 309 310 311 313 314 315 316 318 319 321 323 325 327 330 333 334 335 334 334 334 334 334 334 336 340 343 344 345 347 350 351 350
267 270 273 276 278 280 282 284 285 285 285 286 286 285 286 286 287 288 289 289 288 287 287 287 288 291 294 296 299 302 299 292 291 291 290 288 286 288 290 290 291 293 295 296 298 300 302 303 305 306 307 307 308 309 310 312 313 313 314 316 318 320 322 323 325 327 330 332 333 333 333 333 333 333 333 334 335 338 341 343 344 346 349 351 350
266 269 272 273 276 278 281 283 283 284 284 284 284 284 284 283 283 285 287 289 288 286 285 286 286 289 293 295 298 300 295 288 287 288 286 285 285 287 288 290 292 294 296 296 297 298 299 300 302 303 305 307 308 309 310 311 313 314 315 316 318 320 321 322 324 325 328 330 332 332 332 332 331 332 333 333 334 336 339 342 343 345 348 350 350
266 268 270 272 276 278 281 282 282 282 284 285 284 282 281 281 282 285 289 291 289 284 281 283 286 289 292 295 297 297 293 288 286 284 283 283 283 285 287 290 292 294 294 294 294 295 297 299 301 303 305 306 307 308 310 311 312 313 314 315 316 317 319 320 323 324 326 328 330 330 330 330 330 331 332 333 334 335 337 340 342 344 346 349 349
266 269 272 276 279 281 282 282 282 284 286 287 287 286 287 287 284 284 290 292 289 283 281 283 286 289 291 294 295 295 292 288 284 282 281 281 282 284 287 290 292 293 293 293 293 294 296 298 300 302 304 305 306 307 309 309 310 312 312 313 314 316 317 319 321 323 325 326 328 328 328 329 329 330 331 332 332 333 335 338 341 342 344 346 348
Height
5868 5867 5867 5867 5867 5866 5865 5865 5864 5863 5863 5864 5864 5863 5863 5864 5864 5864 5864 5864 5863 5862 5862 5862 5862 5861 5860 5859 5858 5858 5858 5857 5856 5855 5855 5855 5854 5854 5853 5852 5852 5851 5850 5849 5848 5847 5846 5845 5843 5842 5840 5839 5837 5836 5834 5832 5830 5829 5827 5826 5824 5822 5821 5819 5818 5816 5814 5813 5811 5809 5808 5806 5805 5803 5802 5801 5800 5798 5797 5796 5795 5793 5792 5792 5790
5866 5866 5865 5865 5865 5864 5863 5863 5863 5861 5861 5862 5862 5862 5862 5862 5863 5863 5863 5862 5861 5861 5861 5861 5861 5860 5858 5857 5857 5857 5856 5856 5856 5855 5854 5853 5853 5852 5852 5851 5850 5849 5849 5848 5847 5845 5844 5843 5841 5840 5838 5837 5835 5834 5832 5830 5829 5827 5826 5824 5822 5820 5818 5817 5815 5813 5812 5810 5808 5806 5805 5803 5802 5800 5799 5797 5796 5795 5794 5792 5791 5790 5789 5788 5787
5863 5864 5863 5863 5863 5862 5860 5859 5859 5858 5858 5859 5860 5860 5861 5861 5862 5861 5861 5860 5859 5859 5859 5859 5859 5859 5857 5856 5856 5856 5855 5854 5854 5854 5853 5852 5852 5851 5851 5850 5849 5848 5847 5847 5845 5844 5842 5841 5840 5838 5836 5835 5834 5832 5830 5829 5827 5825 5824 5822 5820 5818 5816 5814 5813 5811 5809 5807 5805 5804 5802 5800 5798 5797 5795 5794 5792 5791 5790 5788 5787 5786 5785 5784 5783
5861 5862 5863 5863 5862 5861 5860 5858 5858 5857 5857 5856 5857 5859 5859 5860 5860 5860 5859 5858 5858 5858 5858 5857 5858 5857 5856 5855 5854 5854 5854 5853 5853 5853 5852 5851 5850 5850 5849 5849 5847 5846 5845 5845 5844 5842 5840 5839 5838 5836 5834 5833 5832 5830 5828 5827 5825 5823 5821 5820 5818 5816 5814 5812 5810 5808 5807 5805 5803 5801 5799 5797 5795 5793 5792 5790 5788 5787 5786 5784 5783 5781 5780 5779 5778
5860 5861 5862 5861 5861 5860 5859 5860 5860 5859 5857 5854 5855 5857 5857 5857 5858 5858 5857 5857 5857 5856 5856 5856 5855 5855 5854 5853 5852 5852 5852 5852 5852 5851 5851 5850 5849 5848 5847 5847 5846 5844 5843 5843 5842 5841 5839 5837 5836 5834 5832 5831 5829 5828 5826 5824 5823 5821 5819 5817 5816 5814 5812 5810 5808 5806 5804 5802 5800 5798 5796 5794 5792 5790 5788 5786 5784 5782 5781 5779 5778 5777 5776 5775 5774
5859 5859 5858 5857 5857 5857 5857 5858 5859 5859 5858 5856 5855 5856 5856 5856 5856 5856 5856 5856 5855 5855 5855 5854 5854 5853 5852 5852 5851 5850 5850 5850 5850 5850 5850 5849 5848 5848 5846 5845 5844 5843 5841 5840 5839 5838 5836 5835 5833 5831 5830 5828 5827 5825 5824 5822 5821 5819 5817 5815 5814 5812 5809 5807 5805 5803 5801 5799 5797 5794 5792 5790 5788 5786 5784 5782 5780 5778 5776 5774 5773 5772 5771 5770 5769
5855 5854 5854 5854 5855 5855 5855 5855 5856 5855 5856 5856 5856 5856 5855 5855 5855 5855 5854 5854 5854 5854 5854 5853 5852 5852 5850 5850 5849 5849 5849 5849 5848 5848 5848 5848 5848 5847 5846 5845 5844 5842 5841 5838 5836 5834 5833 5832 5830 5829 5828 5826 5825 5823 5822 5820 5818 5817 5815 5813 5811 5809 5807 5804 5802 5800 5798 5795 5793 5791 5788 5786 5784 5782 5780 5778 5775 5773 5771 5769 5768 5766 5765 5765 5764
5852 5852 5853 5853 5852 5853 5853 5853 5854 5853 5852 5853 5854 5854 5854 5854 5854 5853 5853 5852 5852 5852 5852 5852 5851 5850 5850 5849 5848 5848 5848 5848 5847 5846 5846 5846 5846 5846 5845 5844 5843 5842 5840 5838 5836 5834 5832 5830 5828 5827 5825 5824 5823 5821 5820 5818 5816 5814 5812 5810 5808 5806 5804 5802 5799 5797 5794 5792 5789 5787 5784 5782 5780 5777 5775 5773 5771 5769 5766 5764 5763 5761 5760 5758 5758
5851 5851 5851 5850 5850 5851 5851 5851 5852 5852 5851 5851 5851 5852 5852 5852 5852 5852 5851 5851 5851 5851 5851 5850 5850 5849 5849 5848 5847 5846 5846 5846 5846 5845 5845 5844 5844 5843 5843 5842 5841 5839 5838 5836 5835 5833 5831 5829 5827 5825 5823 5822 5820 5819 5817 5815 5813 5812 5810 5807 5805 5803 5801 5798 5796 5793 5791 5788 5786 5783 5780 5778 5775 5773 5770 5768 5765 5763 5761 5759 5757 5755 5754 5752 5751
5849 5849 5848 5848 5848 5849 5849 5849 5849 5850 5850 5850 5850 5850 5850 5850 5850 5850 5850 5849 5849 5850 5849 5849 5849 5848 5847 5847 5846 5845 5845 5844 5844 5844 5843 5843 5842 5841 5840 5839 5838 5836 5835 5834 5832 5831 5829 5828 5826 5824 5822 5820 5818 5816 5814 5813 5811 5809 5807 5804 5802 5799 5797 5794 5792 5789 5786 5784 5781 5778 5776 5773 5770 5768 5765 5763 5760 5758 5755 5753 5751 5749 5747 5746 5745
5847 5846 5846 5846 5847 5847 5847 5847 5848 5848 5848 5849 5849 5849 5849 5849 5849 5849 5848 5848 5848 5848 5848 5847 5848 5847 5845 5845 5845 5844 5844 5843 5843 5842 5841 5841 5840 5839 5838 5837 5835 5834 5833 5831 5830 5829 5827 5825 5824 5822 5820 5818 5816 5814 5812 5810 5808 5806 5804 5801 5799 5796 5793 5791 5788 5786 5783 5780 5777 5774 5771 5768 5765 5762 5759 5757 5754 5752 5749 5747 5745 5743 5741 5739 5738
5845 5844 5844 5844 5845 5845 5845 5845 5846 5846 5846 5847 5847 5847 5847 5847 5847 5847 5846 5846 5846 5846 5846 5846 5846 5845 5844 5844 5844 5843 5842 5842 5841 5841 5840 5839 5838 5837 5836 5835 5833 5832 5830 5829 5827 5826 5824 5823 5821 5820 5818 5816 5814 5812 5810 5808 5806 5803 5801 5798 5795 5793 5790 5787 5785 5782 5779 5776 5773 5770 5766 5763 5760 5756 5753 5750 5747 5745 5742 5740 5737 5735 5734 5732 5731
5843 5843 5843 5842 5843 5843 5843 5843 5844 5844 5844 5845 5845 5845 5845 5846 5845 5845 5844 5844 5844 5844 5844 5844 5844 5843 5843 5842 5842 5841 5841 5840 5840 5839 5839 5838 5837 5836 5835 5833 5832 5830 5828 5827 5825 5824 5822 5821 5819 5818 5816 5814 5812 5810 5807 5805 5803 5800 5798 5795 5793 5790 5787 5784 5781 5777 5774 5771 5768 5764 5761 5757 5754 5750 5747 5743 5740 5737 5734 5732 5729 5727 5726 5724 5723
5841 5841 5841 5841 5841 5841 5840 5841 5841 5842 5842 5843 5843 5843 5844 5844 5843 5843 5843 5842 5842 5842 5842 5842 5842 5841 5841 5840 5840 5840 5840 5839 5838 5838 5837 5836 5835 5834 5833 5831 5830 5828 5826 5825 5823 5822 5820 5818 5817 5815 5813 5811 5809 5807 5805 5802 5800 5797 5795 5792 5790 5787 5783 5780 5777 5773 5770 5766 5763 5759 5755 5751 5747 5743 5739 5736 5732 5729 5726 5723 5721 5719 5717 5716 5715
5839 5839 5839 5839 5839 5839 5838 5839 5840 5840 5840 5840 5841 5841 5841 5841 5841 5841 5841 5841 5841 5841 5840 5840 5840 5839 5839 5838 5838 5838 5839 5838 5837 5836 5835 5834 5833 5832 5831 5829 5828 5826 5824 5823 5821 5819 5818 5816 5814 5812 5810 5808 5806 5804 5802 5800 5797 5795 5793 5790 5787 5784 5781 5777 5774 5770 5766 5762 5758 5753 5749 5745 5740 5736 5731 5727 5723 5720 5717 5714 5712 5710 5708 5707 5706
5837 5837 5837 5837 5837 5837 5837 5837 5838 5837 5837 5838 5838 5838 5838 5839 5839 5839 5839 5839 5839 5839 5839 5838 5838 5838 5837 5837 5836 5836 5837 5836 5836 5835 5834 5833 5831 5830 5829 5827 5826 5824 5822 5821 5819 5817 5816 5814 5812 5810 5809 5806 5804 5802 5800 5797 5795 5793 5790 5787 5784 5780 5777 5773 5770 5765 5761 5757 5752 5748 5743 5739 5734 5729 5725 5720 5716 5712 5708 5705 5703 5701 5700 5698 5697
5835 5835 5835 5835 5835 5835 5835 5835 5835 5834 5835 5835 5835 5835 5836 5837 5837 5837 5837 5837 5837 5837 5837 5837 5836 5836 5836 5835 5834 5834 5834 5834 5834 5833 5832 5831 5829 5828 5827 5825 5823 5822 5820 5819 5817 5816 5814 5812 5810 5809 5807 5804 5802 5800 5797 5795 5793 5790 5787 5784 5780 5777 5773 5769 5765 5761 5756 5752 5747 5742 5737 5733 5728 5723 5718 5714 5709 5705 5701 5697 5695 5693 5691 5690 5688
5833 5833 5833 5833 5833 5833 5833 5833 5832 5832 5832 5832 5833 5833 5834 5835 5835 5835 5835 5835 5835 5835 5835 5835 5835 5835 5835 5834 5834 5833 5833 5832 5831 5831 5830 5829 5828 5826 5824 5823 5821 5820 5818 5817 5815 5814 5812 5810 5808 5806 5804 5802 5799 5797 5795 5793 5790 5788 5785 5781 5778 5774 5770 5766 5762 5757 5752 5747 5742 5737 5732 5727 5722 5717 5712 5708 5703 5699 5695 5691 5688 5685 5683 5681 5680
5830 5830 5830 5831 5831 5831 5831 5830 5830 5830 5830 5830 5831 5832 5832 5833 5833 5833 5833 5833 5833 5833 5833 5833 5833 5833 5834 5834 5833 5832 5832 5831 5830 5828 5827 5827 5826 5824 5822 5821 5819 5818 5817 5815 5814 5812 5810 5808 5806 5803 5801 5799 5797 5795 5793 5790 5788 5785 5782 5779 5776 5772 5767 5763 5758 5752 5747 5742 5737 5732 5726 5721 5716 5711 5707 5702 5698 5693 5689 5686 5682 5679 5677 5674 5672
5827 5828 5828 5828 5828 5828 5828 5828 5828 5828 5828 5828 5829 5830 5830 5830 5831 5831 5830 5830 5830 5830 5831 5831 5831 5831 5831 5831 5831 5831 5830 5830 5829 5827 5825 5824 5823 5822 5820 5819 5818 5817 5815 5813 5812 5809 5807 5805 5803 5800 5799 5797 5795 5793 5791 5789 5786 5783 5780 5777 5772 5768 5763 5758 5753 5748 5743 5739 5733 5727 5722 5716 5711 5706 5701 5697 5693 5689 5685 5681 5678 5674 5671 5669 5666
5825 5825 5825 5826 5825 5825 5825 5825 5826 5826 5826 5826 5827 5827 5828 5828 5828 5828 5828 5828 5828 5828 5828 5829 5829 5829 5829 5829 5829 5829 5828 5828 5827 5826 5824 5822 5821 5820 5818 5817 5816 5815 5813 5811 5809 5807 5805 5802 5801 5799 5798 5796 5794 5792 5789 5787 5783 5780 5777 5773 5769 5764 5759 5754 5749 5745 5741 5735 5730 5724 5718 5713 5707 5702 5697 5692 5688 5685 5681 5677 5673 5670 5666 5663 5661
5823 5822 5822 5823 5823 5822 5822 5822 5823 5823 5823 5823 5824 5825 5825 5825 5825 5825 5825 5825 5826 5826 5826 5826 5826 5826 5826 5826 5826 5826 5826 5825 5825 5824 5822 5821 5819 5818 5816 5815 5813 5812 5811 5808 5806 5804 5803 5801 5799 5798 5796 5794 5792 5789 5787 5783 5780 5777 5773 5769 5765 5761 5755 5751 5747 5743 5738 5733 5727 5721 5715 5710 5705 5699 5694 5688 5684 5681 5677 5673 5669 5665 5662 5658 5656
5820 5819 5820 5820 5820 5820 5819 5820 5820 5820 5820 5820 5821 5822 5822 5823 5823 5823 5823 5824 5824 5824 5824 5824 5824 5824 5824 5824 5824 5823 5823 5822 5822 5821 5820 5818 5817 5816 5815 5813 5812 5810 5808 5807 5804 5802 5801 5799 5797 5796 5794 5792 5789 5786 5783 5780 5777 5773 5770 5766 5761 5757 5753 5749 5745 5740 5735 5730 5724 5718 5712 5707 5701 5697 5691 5686 5681 5676 5673 5669 5665 5661 5657 5654 5650
5817 5817 5817 5817 5817 5817 5817 5817 5817 5817 5817 5818 5819 5819 5820 5820 5820 5821 5821 5822 5822 5822 5822 5822 5822 5822 5822 5822 5822 5821 5820 5820 5819 5818 5817 5816 5814 5814 5813 5811 5810 5808 5806 5805 5803 5801 5799 5797 5795 5793 5791 5788 5786 5783 5780 5777 5774 5770 5766 5762 5758 5754 5751 5747 5742 5737 5733 5727 5721 5715 5709 5703 5698 5693 5688 5683 5678 5673 5669 5665 5661 5657 5653 5649 5645
5814 5814 5814 5814 5814 5814 5814 5814 5814 5815 5815 5815 5816 5817 5818 5818 5818 5819 5819 5820 5820 5820 5820 5820 5820 5820 5820 5820 5820 5819 5818 5818 5817 5816 5814 5813 5812 5811 5810 5809 5807 5805 5804 5803 5801 5799 5797 5794 5792 5790 5788 5785 5783 5780 5777 5774 5771 5767 5763 5759 5755 5751 5748 5744 5739 5735 5730 5724 5719 5713 5707 5700 5695 5689 5685 5680 5675 5671 5666 5661 5656 5652 5648 5645 5641
5812 5812 5811 5811 5811 5811 5812 5811 5812 5812 5812 5813 5813 5814 5815 5816 5816 5816 5817 5817 5818 5818 5818 5818 5818 5818 5818 5818 5818 5817 5817 5816 5815 5813 5812 5811 5810 5808 5807 5806 5805 5803 5801 5800 5798 5796 5794 5792 5789 5787 5785 5783 5780 5777 5775 5771 5768 5764 5760 5756 5752 5749 5745 5741 5736 5732 5726 5721 5716 5710 5704 5698 5692 5687 5682 5677 5672 5667 5662 5657 5652 5648 5644 5641 5637
5809 5808 5808 5808 5808 5808 5809 5809 5809 5809 5809 5810 5810 5811 5812 5813 5814 5814 5815 5816 5816 5816 5816 5817 5817 5816 5817 5816 5816 5815 5814 5814 5812 5811 5810 5809 5808 5806 5805 5803 5802 5801 5798 5797 5795 5793 5791 5789 5787 5785 5782 5780 5778 5775 5772 5768 5764 5760 5756 5753 5750 5746 5742 5738 5733 5728 5723 5718 5713 5708 5702 5696 5690 5684 5679 5674 5669 5664 5659 5654 5649 5644 5641 5637 5634
5806 5805 5805 5805 5805 5805 5805 5805 5806 5806 5807 5807 5808 5809 5810 5810 5811 5812 5813 5814 5814 5814 5815 5815 5815 5815 5815 5814 5814 5813 5812 5811 5810 5809 5808 5807 5805 5804 5803 5801 5799 5798 5796 5794 5792 5790 5788 5786 5784 5782 5780 5777 5775 5772 5768 5765 5761 5757 5753 5750 5747 5743 5739 5735 5730 5725 5720 5716 5711 5706 5700 5694 5688 5682 5677 5672 5667 5661 5656 5651 5647 5642 5637 5634 5630
5803 5802 5802 5802 5801 5801 5801 5802 5802 5803 5804 5805 5806 5808 5808 5808 5809 5810 5811 5812 5812 5813 5813 5813 5813 5813 5813 5812 5812 5811 5810 5809 5808 5807 5806 5805 5803 5802 5800 5799 5797 5795 5794 5792 5789 5787 5785 5782 5780 5778 5777 5774 5772 5769 5765 5762 5758 5754 5751 5748 5744 5741 5736 5732 5727 5722 5718 5713 5708 5703 5698 5693 5687 5681 5676 5670 5665 5660 5654 5649 5644 5639 5635 5631 5627
5800 5800 5799 5799 5799 5799 5799 5799 5800 5800 5802 5803 5804 5805 5805 5806 5807 5809 5810 5810 5811 5811 5811 5811 5811 5811 5811 5810 5809 5809 5808 5807 5806 5805 5804 5802 5800 5799 5797 5796 5794 5792 5790 5788 5786 5784 5781 5779 5777 5775 5773 5771 5769 5766 5762 5759 5755 5751 5748 5745 5741 5738 5734 5729 5724 5719 5715 5711 5706 5701 5696 5691 5686 5680 5675 5669 5663 5658 5653 5647 5642 5637 5632 5628 5624
5797 5797 5797 5797 5797 5797 5797 5797 5798 5799 5800 5801 5802 5803 5803 5804 5806 5807 5808 5808 5809 5809 5809 5809 5809 5809 5808 5808 5807 5806 5806 5805 5804 5802 5801 5799 5798 5796 5795 5793 5792 5789 5787 5785 5783 5781 5778 5776 5774 5772 5770 5768 5765 5762 5759 5756 5752 5749 5745 5742 5739 5735 5730 5726 5721 5717 5712 5708 5704 5699 5694 5689 5684 5679 5674 5668 5662 5657 5651 5646 5640 5635 5630 5625 5621
5795 5795 5794 5794 5795 5795 5795 5796 5796 5797 5799 5800 5800 5801 5802 5803 5805 5806 5806 5807 5807 5807 5807 5807 5807 5807 5806 5805 5805 5804 5803 5802 5801 5800 5798 5797 5795 5793 5792 5790 5788 5786 5784 5782 5780 5778 5776 5774 5772 5769 5767 5765 5762 5759 5755 5752 5749 5746 5743 5739 5736 5732 5727 5723 5719 5714 5710 5706 5701 5697 5692 5687 5683 5678 5672 5667 5661 5655 5650 5644 5638 5633 5628 5623 5619
5794 5793 5793 5793 5793 5793 5794 5794 5795 5796 5797 5798 5798 5799 5801 5802 5803 5804 5805 5805 5806 5806 5806 5806 5805 5804 5804 5803 5803 5802 5801 5800 5799 5797 5796 5794 5792 5791 5789 5787 5785 5783 5781 5779 5777 5775 5773 5771 5769 5767 5764 5762 5759 5756 5752 5748 5745 5743 5740 5737 5733 5729 5724 5720 5716 5712 5708 5704 5699 5695 5690 5685 5681 5676 5671 5665 5659 5654 5648 5642 5637 5631 5626 5622 5617
5793 5792 5792 5792 5792 5792 5792 5793 5793 5794 5795 5796 5797 5798 5800 5801 5802 5803 5803 5804 5804 5804 5804 5803 5803 5802 5802 5801 5800 5799 5798 5797 5796 5794 5793 5792 5790 5788 5786 5784 5782 5780 5778 5776 5774 5772 5770 5768 5766 5764 5761 5759 5756 5753 5750 5746 5743 5740 5737 5734 5730 5726 5722 5718 5714 5709 5706 5701 5697 5692 5688 5683 5679 5674 5669 5663 5658 5652 5646 5641 5636 5630 5625 5620 5615
5792 5791 5791 5791 5791 5791 5791 5791 5792 5793 5794 5795 5796 5798 5799 5800 5801 5801 5802 5802 5802 5802 5801 5801 5800 5800 5799 5799 5798 5797 5795 5794 5793 5792 5790 5789 5787 5785 5783 5781 5779 5777 5775 5773 5771 5769 5767 5765 5763 5761 5758 5755 5753 5750 5747 5744 5741 5737 5734 5731 5727 5724 5719 5715 5711 5707 5703 5699 5695 5690 5686 5681 5677 5672 5667 5661 5656 5650 5645 5639 5634 5629 5624 5618 5613
5791 5790 5790 5790 5791 5791 5791 5791 5792 5793 5793 5795 5796 5797 5798 5798 5799 5800 5800 5800 5800 5799 5799 5798 5798 5797 5796 5796 5795 5794 5793 5791 5790 5789 5787 5786 5784 5782 5780 5778 5776 5774 5772 5770 5768 5766 5764 5762 5760 5758 5755 5753 5749 5746 5744 5741 5739 5735 5732 5728 5724 5721 5717 5713 5709 5705 5701 5697 5692 5688 5683 5679 5675 5670 5665 5660 5654 5649 5643 5637 5632 5627 5622 5616 5612
5790 5790 5790 5790 5790 5790 5790 5791 5791 5792 5793 5794 5795 5796 5796 5797 5797 5798 5798 5797 5797 5797 5796 5796 5795 5794 5793 5793 5792 5791 5789 5788 5787 5785 5784 5783 5781 5779 5777 5775 5773 5771 5769 5767 5765 5763 5761 5759 5757 5755 5753 5750 5747 5744 5740 5737 5735 5733 5729 5726 5721 5718 5714 5710 5707 5703 5699 5695 5690 5686 5681 5677 5672 5668 5663 5658 5653 5647 5641 5636 5630 5624 5619 5614 5609
5789 5789 5790 5790 5790 5790 5790 5790 5791 5792 5793 5793 5793 5794 5794 5795 5795 5795 5795 5795 5794 5794 5793 5793 5792 5791 5790 5790 5788 5787 5786 5784 5783 5782 5781 5779 5778 5776 5774 5772 5770 5768 5766 5764 5762 5760 5758 5756 5754 5752 5749 5747 5744 5741 5738 5735 5731 5728 5726 5722 5719 5715 5711 5708 5704 5700 5696 5692 5688 5684 5679 5675 5670 5665 5661 5656 5651 5645 5640 5634 5628 5622 5617 5612 5607
5789 5789 5789 5789 5790 5790 5790 5790 5790 5791 5791 5792 5792 5792 5792 5792 5793 5792 5792 5792 5792 5791 5791 5790 5789 5788 5787 5786 5785 5784 5782 5781 5780 5778 5777 5776 5774 5773 5771 5769 5767 5765 5763 5761 5759 5758 5756 5754 5751 5749 5746 5744 5741 5738 5735 5733 5730 5726 5722 5719 5716 5713 5709 5705 5702 5698 5694 5690 5686 5682 5677 5672 5668 5663 5658 5654 5649 5644 5638 5633 5627 5621 5615 5609 5604
5788 5788 5788 5789 5789 5789 5789 5789 5789 5790 5790 5790 5790 5790 5790 5790 5790 5790 5789 5789 5789 5789 5788 5787 5786 5785 5784 5783 5781 5780 5779 5777 5776 5774 5774 5772 5771 5769 5767 5765 5764 5762 5760 5758 5756 5755 5753 5750 5748 5746 5743 5741 5738 5735 5732 5729 5727 5724 5720 5717 5713 5710 5707 5704 5700 5696 5691 5688 5684 5679 5675 5670 5665 5660 5656 5651 5647 5642 5637 5631 5626 5619 5613 5607 5601
5787 5787 5787 5788 5788 5788 5788 5788 5788 5788 5788 5788 5788 5788 5788 5787 5787 5787 5787 5787 5786 5786 5785 5784 5783 5782 5781 5779 5778 5777 5775 5774 5772 5770 5770 5769 5767 5765 5764 5762 5761 5759 5757 5755 5753 5751 5750 5747 5745 5743 5740 5737 5735 5732 5729 5727 5724 5721 5718 5715 5711 5707 5704 5701 5697 5693 5689 5685 5681 5677 5673 5668 5663 5658 5654 5649 5645 5640 5635 5630 5624 5618 5611 5605 5600
5786 5786 5786 5786 5786 5787 5786 5786 5786 5786 5786 5786 5786 5785 5785 5785 5785 5784 5784 5784 5784 5783 5782 5781 5780 5779 5778 5776 5774 5773 5772 5771 5769 5767 5766 5765 5763 5762 5760 5759 5757 5756 5754 5752 5750 5748 5746 5744 5742 5739 5737 5734 5731 5729 5727 5724 5722 5719 5716 5712 5709 5705 5701 5697 5693 5690 5686 5682 5678 5674 5670 5665 5661 5656 5652 5647 5643 5638 5633 5628 5622 5616 5610 5604 5598
5784 5785 5785 5785 5785 5785 5785 5785 5785 5784 5784 5783 5783 5783 5783 5783 5782 5782 5782 5782 5781 5780 5779 5778 5777 5776 5774 5773 5771 5770 5769 5767 5765 5763 5762 5761 5759 5758 5757 5755 5754 5752 5751 5749 5747 5745 5743 5741 5738 5736 5734 5731 5729 5726 5724 5721 5718 5716 5713 5710 5707 5703 5699 5695 5691 5687 5683 5679 5675 5671 5667 5663 5658 5654 5650 5645 5641 5636 5631 5626 5620 5615 5609 5603 5597
5783 5783 5783 5783 5783 5783 5783 5783 5783 5782 5782 5781 5781 5781 5780 5780 5780 5779 5779 5779 5778 5777 5775 5775 5774 5772 5771 5770 5768 5766 5765 5763 5761 5760 5759 5757 5755 5754 5753 5752 5750 5749 5747 5746 5744 5742 5740 5737 5735 5733 5731 5728 5726 5723 5720 5718 5716 5713 5711 5708 5704 5700 5697 5693 5689 5685 5681 5676 5671 5668 5664 5660 5656 5651 5647 5643 5639 5634 5629 5624 5619 5613 5608 5602 5596
5781 5781 5781 5781 5781 5781 5781 5781 5780 5780 5779 5779 5778 5778 5778 5777 5777 5776 5776 5776 5775 5774 5772 5772 5770 5769 5767 5766 5765 5763 5761 5759 5758 5756 5755 5753 5752 5750 5749 5748 5746 5745 5744 5742 5740 5738 5737 5735 5732 5730 5727 5725 5722 5720 5718 5715 5713 5710 5707 5704 5701 5698 5694 5690 5687 5683 5678 5673 5668 5664 5661 5657 5653 5649 5645 5641 5636 5632 5627 5622 5617 5612 5606 5600 5595
5779 5779 5779 5779 5779 5779 5779 5778 5778 5777 5776 5776 5776 5775 5775 5774 5774 5773 5773 5772 5771 5770 5769 5768 5767 5765 5764 5762 5761 5759 5757 5756 5754 5753 5751 5749 5748 5747 5746 5744 5743 5741 5740 5738 5737 5735 5733 5731 5729 5726 5724 5721 5719 5717 5715 5712 5710 5707 5704 5701 5697 5694 5691 5687 5683 5679 5675 5671 5667 5662 5658 5654 5651 5647 5643 5638 5634 5630 5625 5620 5616 5611 5605 5599 5594
5776 5776 5777 5777 5776 5776 5776 5775 5775 5774 5773 5773 5773 5772 5771 5771 5770 5770 5769 5769 5768 5766 5765 5764 5763 5761 5760 5758 5757 5755 5754 5752 5751 5749 5747 5746 5744 5743 5742 5740 5739 5738 5736 5735 5733 5732 5729 5727 5725 5722 5720 5718 5716 5714 5711 5709 5706 5703 5701 5697 5694 5691 5687 5683 5680 5676 5672 5668 5665 5661 5656 5651 5648 5644 5640 5636 5632 5627 5623 5618 5614 5609 5604 5598 5593
5774 5774 5774 5774 5774 5773 5773 5773 5772 5770 5769 5770 5769 5768 5768 5767 5767 5766 5766 5765 5764 5762 5761 5760 5759 5757 5756 5754 5753 5751 5750 5748 5747 5745 5744 5742 5741 5739 5738 5737 5735 5734 5733 5731 5729 5728 5726 5723 5721 5719 5717 5715 5712 5710 5707 5704 5702 5699 5697 5694 5691 5687 5684 5680 5677 5673 5669 5666 5662 5658 5654 5649 5645 5641 5637 5634 5630 5625 5621 5617 5612 5607 5602 5597 5592
5771 5772 5771 5771 5771 5771 5770 5770 5768 5767 5765 5766 5765 5765 5764 5763 5763 5762 5761 5760 5759 5758 5757 5756 5754 5753 5752 5750 5749 5747 5746 5744 5743 5741 5740 5738 5737 5735 5734 5733 5731 5730 5729 5727 5726 5724 5722 5720 5718 5715 5713 5711 5708 5706 5703 5701 5698 5695 5693 5690 5688 5685 5681 5678 5674 5671 5667 5663 5659 5655 5651 5648 5644 5639 5635 5631 5627 5623 5620 5615 5611 5606 5601 5596 5591
5769 5769 5768 5768 5767 5768 5767 5766 5765 5763 5761 5761 5761 5760 5759 5758 5758 5758 5757 5756 5755 5754 5752 5751 5750 5749 5748 5746 5745 5743 5741 5740 5739 5737 5735 5734 5733 5731 5730 5729 5727 5726 5725 5724 5722 5721 5719 5717 5714 5711 5709 5707 5704 5702 5700 5697 5695 5692 5689 5686 5684 5681 5678 5675 5671 5668 5664 5660 5657 5653 5649 5645 5641 5638 5633 5629 5624 5621 5617 5614 5609 5605 5600 5596 5591
5765 5765 5765 5764 5764 5764 5763 5762 5760 5758 5757 5756 5755 5755 5755 5754 5754 5754 5753 5752 5751 5749 5748 5747 5746 5745 5743 5742 5740 5738 5737 5736 5734 5733 5731 5730 5728 5727 5726 5725 5723 5722 5721 5720 5718 5716 5715 5712 5710 5707 5705 5703 5700 5698 5696 5694 5691 5688 5686 5683 5680 5677 5674 5671 5667 5664 5660 5657 5653 5650 5646 5642 5638 5634 5631 5627 5623 5619 5615 5611 5608 5604 5600 5595 5591